AEZ2115 LIRF-LICB

Flight info

Callsign AEZ2115
Flight time 0h 54m
Altitude 29000
Route RIFFI DCT BEROL DCT ROSAS DCT LIBRO
Aircraft B738/M-SDE2E3FGHIRWXY/LB1

Departure

Time 2026-05-08 21:35
Airport Rome–Fiumicino Leonardo da Vinci International Airport (LIRF)

Arrival

Time 2026-05-08 22:29
Airport Comiso Airport (LICB)
Time Latitude Longitude Altitude Speed Heading
2026-05-08 21:09 41.79902 12.26618 13 ft 0 kts 250°
2026-05-08 21:28 41.79897 12.26592 11 ft 4 kts 263°
2026-05-08 21:28 41.79919 12.26546 13 ft 9 kts 330°
2026-05-08 21:28 41.80005 12.26500 13 ft 17 kts 339°
2026-05-08 21:28 41.80119 12.26440 13 ft 16 kts 321°
2026-05-08 21:29 41.80118 12.26299 13 ft 16 kts 277°
2026-05-08 21:29 41.80166 12.26141 13 ft 21 kts 295°
2026-05-08 21:29 41.80272 12.26065 14 ft 20 kts 23°
2026-05-08 21:29 41.80396 12.26139 14 ft 19 kts 18°
2026-05-08 21:30 41.80523 12.26179 15 ft 19 kts
2026-05-08 21:30 41.80635 12.26203 17 ft 7 kts 342°
2026-05-08 21:30 41.80638 12.26201 16 ft 0 kts 339°
2026-05-08 21:33 41.80679 12.26183 15 ft 14 kts 344°
2026-05-08 21:33 41.80723 12.26077 18 ft 15 kts 253°
2026-05-08 21:33 41.80718 12.26060 19 ft 1 kts 246°
2026-05-08 21:33 41.80717 12.26057 19 ft 0 kts 246°
2026-05-08 21:34 41.80717 12.26056 19 ft 1 kts 246°
2026-05-08 21:34 41.80673 12.25906 16 ft 50 kts 250°
2026-05-08 21:34 41.80471 12.25163 16 ft 118 kts 250°
2026-05-08 21:34 41.80121 12.23889 91 ft 165 kts 246°
2026-05-08 21:35 41.79726 12.22399 719 ft 173 kts 248°
2026-05-08 21:35 41.79253 12.20977 1557 ft 166 kts 225°
2026-05-08 21:35 41.78388 12.19944 2247 ft 168 kts 218°
2026-05-08 21:35 41.77434 12.18853 2767 ft 190 kts 217°
2026-05-08 21:36 41.76395 12.17707 3529 ft 198 kts 217°
2026-05-08 21:36 41.75167 12.16869 4100 ft 205 kts 189°
2026-05-08 21:36 41.73659 12.16817 4417 ft 229 kts 180°
2026-05-08 21:36 41.72018 12.16892 4916 ft 242 kts 179°
2026-05-08 21:37 41.70275 12.16981 5308 ft 263 kts 179°
2026-05-08 21:37 41.68404 12.17077 5948 ft 274 kts 178°
2026-05-08 21:37 41.66471 12.17176 6737 ft 280 kts 177°
2026-05-08 21:37 41.64504 12.17274 7498 ft 286 kts 177°
2026-05-08 21:38 41.62519 12.17371 8401 ft 286 kts 176°
2026-05-08 21:38 41.60515 12.17467 9234 ft 290 kts 176°
2026-05-08 21:38 41.58481 12.17563 10000 ft 296 kts 176°
2026-05-08 21:38 41.56373 12.17662 10426 ft 315 kts 176°
2026-05-08 21:39 41.54094 12.17486 10611 ft 341 kts 187°
2026-05-08 21:39 41.51670 12.16981 10820 ft 362 kts 182°
2026-05-08 21:39 41.49178 12.17439 11336 ft 365 kts 156°
2026-05-08 21:39 41.47055 12.19217 12138 ft 361 kts 135°
2026-05-08 21:40 41.45284 12.21586 12939 ft 362 kts 132°
2026-05-08 21:40 41.43538 12.24032 13655 ft 366 kts 132°
2026-05-08 21:40 41.41779 12.26514 14304 ft 370 kts 132°
2026-05-08 21:41 41.38187 12.31533 15550 ft 378 kts 134°
2026-05-08 21:41 41.36354 12.34067 16182 ft 382 kts 134°
2026-05-08 21:41 41.34502 12.36616 16785 ft 385 kts 135°
2026-05-08 21:41 41.32626 12.39192 17381 ft 389 kts 135°
2026-05-08 21:42 41.30729 12.41793 17953 ft 394 kts 135°
2026-05-08 21:42 41.28808 12.44426 18428 ft 400 kts 136°
2026-05-08 21:42 41.26862 12.47092 18935 ft 403 kts 136°
2026-05-08 21:42 41.24903 12.49770 19452 ft 406 kts 136°
2026-05-08 21:43 41.22887 12.52415 19934 ft 409 kts 142°
2026-05-08 21:43 41.20435 12.54289 20386 ft 409 kts 161°
2026-05-08 21:43 41.17750 12.55558 20906 ft 411 kts 162°
2026-05-08 21:43 41.15041 12.56809 21353 ft 415 kts 162°
2026-05-08 21:44 41.12303 12.58076 21791 ft 419 kts 162°
2026-05-08 21:44 41.09543 12.59363 22252 ft 422 kts 162°
2026-05-08 21:44 41.06768 12.60668 22676 ft 426 kts 162°
2026-05-08 21:44 41.03964 12.61995 23073 ft 430 kts 162°
2026-05-08 21:45 41.01140 12.63337 23522 ft 432 kts 162°
2026-05-08 21:45 40.98339 12.64670 23919 ft 434 kts 162°
2026-05-08 21:45 40.95494 12.66025 24375 ft 435 kts 162°
2026-05-08 21:45 40.92643 12.67382 24824 ft 436 kts 162°
2026-05-08 21:46 40.89778 12.68744 25229 ft 438 kts 162°
2026-05-08 21:46 40.86904 12.70109 25606 ft 440 kts 162°
2026-05-08 21:46 40.84020 12.71477 25962 ft 442 kts 162°
2026-05-08 21:46 40.81119 12.72852 26309 ft 444 kts 162°
2026-05-08 21:47 40.78209 12.74229 26664 ft 445 kts 162°
2026-05-08 21:47 40.75291 12.75609 27020 ft 446 kts 162°
2026-05-08 21:47 40.72363 12.76992 27350 ft 448 kts 162°
2026-05-08 21:47 40.69421 12.78381 27641 ft 450 kts 162°
2026-05-08 21:48 40.66462 12.79776 27929 ft 453 kts 162°
2026-05-08 21:48 40.63494 12.81174 28232 ft 454 kts 162°
2026-05-08 21:48 40.60515 12.82576 28545 ft 455 kts 162°
2026-05-08 21:48 40.57530 12.83980 28858 ft 456 kts 162°
2026-05-08 21:49 40.51521 12.86802 28950 ft 457 kts 162°
2026-05-08 21:49 40.45590 12.89585 29006 ft 453 kts 162°
2026-05-08 21:50 40.42615 12.90977 29296 ft 454 kts 162°
2026-05-08 21:50 40.39643 12.92367 29773 ft 452 kts 163°
2026-05-08 21:50 40.36671 12.93756 30003 ft 455 kts 163°
2026-05-08 21:50 40.33683 12.95151 30270 ft 456 kts 163°
2026-05-08 21:51 40.30695 12.96545 30531 ft 457 kts 163°
2026-05-08 21:51 40.27694 12.97945 30790 ft 458 kts 163°
2026-05-08 21:51 40.24681 12.99349 30946 ft 460 kts 164°
2026-05-08 21:51 40.21654 13.00755 30940 ft 463 kts 164°
2026-05-08 21:52 40.15573 13.03398 30912 ft 461 kts 168°
2026-05-08 21:52 40.09349 13.05780 30947 ft 471 kts 169°
2026-05-08 21:53 40.02998 13.08210 30950 ft 477 kts 169°
2026-05-08 21:53 39.96642 13.10695 30941 ft 477 kts 168°
2026-05-08 21:54 39.90292 13.13196 30942 ft 476 kts 168°
2026-05-08 21:54 39.84059 13.15655 30936 ft 457 kts 167°
2026-05-08 21:55 39.77985 13.18035 30951 ft 457 kts 167°
2026-05-08 21:56 39.68813 13.21611 30914 ft 464 kts 171°
2026-05-08 21:56 39.62551 13.24045 30953 ft 476 kts 171°
2026-05-08 21:57 39.56137 13.26537 30956 ft 486 kts 170°
2026-05-08 21:57 39.49693 13.29047 30935 ft 486 kts 170°
2026-05-08 21:58 39.43215 13.31567 30940 ft 486 kts 172°
2026-05-08 21:58 39.36727 13.34078 30951 ft 488 kts 172°
2026-05-08 21:59 39.30211 13.36593 30952 ft 490 kts 172°
2026-05-08 21:59 39.23673 13.39113 30904 ft 491 kts 173°
2026-05-08 22:00 39.17110 13.41639 30941 ft 493 kts 173°
2026-05-08 22:00 39.10521 13.44169 30961 ft 496 kts 173°
2026-05-08 22:01 39.03897 13.46710 30961 ft 497 kts 173°
2026-05-08 22:01 38.97260 13.49253 30958 ft 497 kts 173°
2026-05-08 22:02 38.90630 13.51788 30952 ft 497 kts 173°
2026-05-08 22:02 38.84053 13.54623 30953 ft 507 kts 163°
2026-05-08 22:03 38.77880 13.59199 30943 ft 514 kts 156°
2026-05-08 22:03 38.71804 13.63993 30958 ft 511 kts 156°
2026-05-08 22:04 38.65747 13.68697 30960 ft 508 kts 157°
2026-05-08 22:04 38.59691 13.73325 30962 ft 506 kts 158°
2026-05-08 22:05 38.53654 13.77910 30966 ft 504 kts 158°
2026-05-08 22:05 38.47635 13.82476 30956 ft 503 kts 157°
2026-05-08 22:06 38.41625 13.87028 30971 ft 502 kts 158°
2026-05-08 22:06 38.35621 13.91569 30967 ft 502 kts 158°
2026-05-08 22:07 38.29644 13.96082 30959 ft 503 kts 158°
2026-05-08 22:07 38.26570 13.98394 30302 ft 509 kts 157°
2026-05-08 22:07 38.23532 14.00681 29567 ft 507 kts 157°
2026-05-08 22:07 38.20499 14.02966 28718 ft 506 kts 157°
2026-05-08 22:08 38.17478 14.05239 27879 ft 505 kts 157°
2026-05-08 22:08 38.14498 14.07478 27081 ft 503 kts 157°
2026-05-08 22:08 38.11468 14.09756 26517 ft 496 kts 157°
2026-05-08 22:08 38.08549 14.11949 25904 ft 491 kts 157°
2026-05-08 22:09 38.05620 14.14144 25299 ft 486 kts 157°
2026-05-08 22:09 38.02683 14.16343 24657 ft 482 kts 157°
2026-05-08 22:09 37.99845 14.18463 24093 ft 477 kts 157°
2026-05-08 22:09 37.97922 14.19898 23684 ft 475 kts 157°
2026-05-08 22:10 37.94169 14.22696 22764 ft 470 kts 157°
2026-05-08 22:10 37.91369 14.24784 22163 ft 464 kts 157°
2026-05-08 22:10 37.88607 14.26844 21569 ft 458 kts 157°
2026-05-08 22:10 37.85880 14.28874 20971 ft 452 kts 157°
2026-05-08 22:11 37.84054 14.30233 20595 ft 448 kts 158°
2026-05-08 22:11 37.81377 14.32221 20028 ft 444 kts 158°
2026-05-08 22:11 37.78728 14.34185 19457 ft 440 kts 158°
2026-05-08 22:11 37.76130 14.36112 18849 ft 437 kts 158°
2026-05-08 22:12 37.73517 14.38049 18310 ft 433 kts 158°
2026-05-08 22:12 37.70925 14.39969 17664 ft 430 kts 158°
2026-05-08 22:12 37.68362 14.41868 17079 ft 426 kts 157°
2026-05-08 22:12 37.65823 14.43747 16507 ft 421 kts 158°
2026-05-08 22:13 37.63311 14.45597 15964 ft 415 kts 158°
2026-05-08 22:13 37.60708 14.46941 15411 ft 393 kts 177°
2026-05-08 22:13 37.58049 14.47425 14904 ft 384 kts 180°
2026-05-08 22:13 37.55419 14.47907 14380 ft 380 kts 179°
2026-05-08 22:14 37.52818 14.48413 13869 ft 376 kts 179°
2026-05-08 22:14 37.50251 14.48927 13294 ft 372 kts 179°
2026-05-08 22:14 37.47717 14.49448 12756 ft 368 kts 179°
2026-05-08 22:14 37.45207 14.49960 12251 ft 363 kts 179°
2026-05-08 22:15 37.42725 14.50467 11730 ft 360 kts 179°
2026-05-08 22:15 37.40266 14.50968 11227 ft 356 kts 179°
2026-05-08 22:15 37.37847 14.51465 10965 ft 346 kts 179°
2026-05-08 22:15 37.35517 14.51947 10812 ft 333 kts 179°
2026-05-08 22:16 37.33271 14.52411 10679 ft 321 kts 179°
2026-05-08 22:16 37.31103 14.52856 10553 ft 311 kts 179°
2026-05-08 22:16 37.29001 14.53285 10435 ft 301 kts 180°
2026-05-08 22:16 37.26963 14.53700 10286 ft 292 kts 180°
2026-05-08 22:17 37.24990 14.54102 10175 ft 283 kts 180°
2026-05-08 22:17 37.23078 14.54492 10064 ft 274 kts 180°
2026-05-08 22:17 37.21227 14.54868 9973 ft 266 kts 181°
2026-05-08 22:17 37.19406 14.55234 9707 ft 265 kts 181°
2026-05-08 22:18 37.17592 14.55598 9444 ft 263 kts 181°
2026-05-08 22:18 37.15794 14.55961 9192 ft 261 kts 181°
2026-05-08 22:18 37.14005 14.56323 8923 ft 260 kts 181°
2026-05-08 22:18 37.12223 14.56683 8664 ft 258 kts 180°
2026-05-08 22:19 37.10453 14.57042 8404 ft 257 kts 180°
2026-05-08 22:19 37.08692 14.57399 8172 ft 256 kts 180°
2026-05-08 22:19 37.06951 14.57754 8027 ft 250 kts 180°
2026-05-08 22:19 37.05265 14.58099 7915 ft 242 kts 181°
2026-05-08 22:20 37.03629 14.58434 7794 ft 234 kts 181°
2026-05-08 22:20 37.02048 14.58755 7701 ft 226 kts 181°
2026-05-08 22:20 37.00502 14.59003 7628 ft 219 kts 193°
2026-05-08 22:20 36.99133 14.58451 7534 ft 204 kts 221°
2026-05-08 22:21 36.98132 14.57236 7303 ft 197 kts 239°
2026-05-08 22:21 36.97581 14.55713 7058 ft 189 kts 253°
2026-05-08 22:21 36.97203 14.54169 6825 ft 182 kts 253°
2026-05-08 22:21 36.96839 14.52686 6585 ft 175 kts 253°
2026-05-08 22:22 36.96490 14.51260 6346 ft 168 kts 253°
2026-05-08 22:22 36.96153 14.49887 6118 ft 162 kts 253°
2026-05-08 22:22 36.95825 14.48554 5898 ft 160 kts 253°
2026-05-08 22:22 36.95495 14.47215 5697 ft 162 kts 253°
2026-05-08 22:23 36.95158 14.45852 5483 ft 166 kts 253°
2026-05-08 22:23 36.94818 14.44475 5272 ft 167 kts 254°
2026-05-08 22:23 36.94477 14.43092 5075 ft 171 kts 254°
2026-05-08 22:23 36.94118 14.41642 4888 ft 173 kts 254°
2026-05-08 22:24 36.93536 14.40315 4720 ft 179 kts 231°
2026-05-08 22:24 36.92558 14.39396 4465 ft 181 kts 211°
2026-05-08 22:24 36.91306 14.38997 4056 ft 193 kts 187°
2026-05-08 22:24 36.89972 14.39296 3763 ft 199 kts 160°
2026-05-08 22:25 36.88865 14.40334 3511 ft 203 kts 130°
2026-05-08 22:25 36.88271 14.41922 3271 ft 205 kts 97°
2026-05-08 22:25 36.88550 14.43623 3044 ft 202 kts 57°
2026-05-08 22:25 36.89323 14.45124 2993 ft 211 kts 55°
2026-05-08 22:26 36.90141 14.46632 2918 ft 205 kts 50°
2026-05-08 22:26 36.90995 14.47993 2898 ft 191 kts 48°
2026-05-08 22:26 36.91833 14.49249 2789 ft 189 kts 47°
2026-05-08 22:26 36.92678 14.50518 2548 ft 189 kts 47°
2026-05-08 22:27 36.93517 14.51774 2300 ft 187 kts 48°
2026-05-08 22:27 36.94336 14.53005 2064 ft 180 kts 49°
2026-05-08 22:27 36.95106 14.54163 1850 ft 166 kts 50°
2026-05-08 22:27 36.95815 14.55227 1628 ft 158 kts 49°
2026-05-08 22:28 36.96511 14.56275 1410 ft 154 kts 50°
2026-05-08 22:28 36.97192 14.57298 1235 ft 153 kts 51°
2026-05-08 22:28 36.97891 14.58336 1063 ft 158 kts 51°
2026-05-08 22:28 36.98576 14.59397 825 ft 155 kts 50°
2026-05-08 22:29 36.99257 14.60405 724 ft 145 kts 51°
2026-05-08 22:29 36.99761 14.61152 720 ft 67 kts 50°
2026-05-08 22:29 36.99987 14.61423 722 ft 39 kts 24°
2026-05-08 22:29 37.00140 14.61409 720 ft 21 kts 251°
2026-05-08 22:30 37.00047 14.61257 720 ft 23 kts 230°
2026-05-08 22:30 36.99944 14.61112 721 ft 22 kts 227°
2026-05-08 22:30 36.99846 14.60969 722 ft 22 kts 232°
2026-05-08 22:30 36.99777 14.60855 724 ft 8 kts 250°
2026-05-08 22:31 36.99788 14.60813 721 ft 0 kts 316°
2026-05-08 22:31 36.99791 14.60809 721 ft 3 kts 316°
2026-05-08 22:31 36.99800 14.60802 720 ft 1 kts 335°
2026-05-08 22:31 36.99807 14.60798 720 ft 1 kts 337°
2026-05-08 22:32 36.99809 14.60797 720 ft 0 kts 338°